This is the latest recevied weather packets stored in our database for station/object N0NB. If no packets are shown the sender has not sent any weather packets the latest 10 day(s).
| Time | Temp. | Humidity | Pressure | Rain* | Wind** | Luminosity | Snow |
|---|---|---|---|---|---|---|---|
| 1777551916 | 7.78° C | 84% | 1017.4 hPa | 0 mm | - | 48 W/m² | - |
| 1777551316 | 7.78° C | 84% | 1017.4 hPa | 0 mm | - | 36 W/m² | - |
| 1777550716 | 7.78° C | 84% | 1017.5 hPa | 0 mm | - | 26 W/m² | - |
| 1777550116 | 7.78° C | 84% | 1017.5 hPa | 0 mm | - | 12 W/m² | - |
| 1777549516 | 7.78° C | 84% | 1017.4 hPa | 0 mm | - | 8 W/m² | - |
| 1777548916 | 7.22° C | 86% | 1017.2 hPa | 0 mm | - | 0 W/m² | - |
| 1777548316 | 6.67° C | 87% | 1017.1 hPa | 0 mm | - | 0 W/m² | - |
| 1777547716 | 6.11° C | 86% | 1017.1 hPa | 0 mm | - | 0 W/m² | - |
| 1777547116 | 6.11° C | 86% | 1017.1 hPa | 0 mm | - | 0 W/m² | - |
| 1777546516 | 6.11° C | 85% | 1017.1 hPa | 0 mm | - | 0 W/m² | - |
| 1777545916 | 6.67° C | 86% | 1017.2 hPa | 0 mm | - | 0 W/m² | - |
| 1777545316 | 6.11° C | 85% | 1017.3 hPa | 0 mm | - | 0 W/m² | - |
| 1777544716 | 6.67° C | 84% | 1017.3 hPa | 0 mm | - | 0 W/m² | - |
| 1777544116 | 7.22° C | 83% | 1017.1 hPa | 0 mm | - | 0 W/m² | - |
| 1777543516 | 7.22° C | 83% | 1017.2 hPa | 0 mm | - | 0 W/m² | - |
| 1777542916 | 7.78° C | 82% | 1017.3 hPa | 0 mm | - | 0 W/m² | - |
| 1777542316 | 7.78° C | 83% | 1017.3 hPa | 0 mm | - | 0 W/m² | - |
| 1777541716 | 7.78° C | 84% | 1017.2 hPa | 0 mm | - | 0 W/m² | - |
| 1777541116 | 7.22° C | 84% | 1017.3 hPa | 0 mm | - | 0 W/m² | - |
| 1777540516 | 6.67° C | 87% | 1017.2 hPa | 0 mm | - | 0 W/m² | - |
| 1777539915 | 6.11° C | 86% | 1017.1 hPa | 0 mm | - | 0 W/m² | - |
| 1777539315 | 6.67° C | 84% | 1016.9 hPa | 0 mm | - | 0 W/m² | - |
| 1777538715 | 6.67° C | 85% | 1016.8 hPa | 0 mm | - | 0 W/m² | - |
| 1777538115 | 6.67° C | 83% | 1016.9 hPa | 0 mm | - | 0 W/m² | - |
| 1777537515 | 7.22° C | 81% | 1017 hPa | 0 mm | - | 0 W/m² | - |
* Rain latest hour (hover to see other rain measurements)
** Current wind speed in m/s (hover to see current wind gust speed)